TimeEST,TemperatureF,Dew PointF,Humidity,Sea Level PressureIn,VisibilityMPH,Wind Direction,Wind SpeedMPH,Gust SpeedMPH,PrecipitationIn,Events,Conditions,WindDirDegrees,DateUTC
12:54 AM,21.9,18.0,85,30.03,10.0,South,3.5,-,N/A,,Partly Cloudy,180,2012-12-23 05:54:00
1:54 AM,21.0,18.0,88,30.00,10.0,SE,3.5,-,N/A,,Partly Cloudy,140,2012-12-23 06:54:00
2:54 AM,19.9,17.1,89,29.99,10.0,SE,3.5,-,N/A,,Partly Cloudy,140,2012-12-23 07:54:00
3:54 AM,21.0,18.0,88,29.96,10.0,Calm,Calm,-,N/A,,Partly Cloudy,0,2012-12-23 08:54:00
4:54 AM,19.9,17.1,89,29.94,10.0,South,3.5,-,N/A,,Partly Cloudy,180,2012-12-23 09:54:00
5:54 AM,21.0,17.1,85,29.94,10.0,Calm,Calm,-,N/A,,Partly Cloudy,0,2012-12-23 10:54:00
6:54 AM,19.9,18.0,92,29.95,10.0,Calm,Calm,-,N/A,,Partly Cloudy,0,2012-12-23 11:54:00
7:54 AM,19.9,17.1,89,29.96,10.0,Calm,Calm,-,N/A,,Scattered Clouds,0,2012-12-23 12:54:00
8:54 AM,21.0,19.0,92,29.98,10.0,SW,3.5,-,N/A,,Scattered Clouds,230,2012-12-23 13:54:00
9:54 AM,27.0,21.9,81,29.98,10.0,West,4.6,-,N/A,,Mostly Cloudy,260,2012-12-23 14:54:00
10:54 AM,30.0,23.0,75,30.00,10.0,WNW,3.5,-,N/A,,Mostly Cloudy,300,2012-12-23 15:54:00
11:54 AM,34.0,27.0,75,29.99,10.0,Calm,Calm,-,N/A,,Mostly Cloudy,0,2012-12-23 16:54:00
1:54 PM,37.9,28.9,70,29.97,10.0,NNW,5.8,-,N/A,,Mostly Cloudy,340,2012-12-23 18:54:00
2:54 PM,37.9,28.0,68,29.97,10.0,NNW,5.8,-,N/A,,Mostly Cloudy,340,2012-12-23 19:54:00
3:54 PM,37.9,28.9,70,29.98,10.0,Calm,Calm,-,N/A,,Scattered Clouds,0,2012-12-23 20:54:00
4:54 PM,34.0,28.0,79,30.00,10.0,NW,3.5,-,N/A,,Mostly Cloudy,310,2012-12-23 21:54:00
5:54 PM,30.9,27.0,85,30.01,10.0,North,3.5,-,N/A,,Mostly Cloudy,350,2012-12-23 22:54:00
6:54 PM,28.9,25.0,85,30.02,10.0,North,4.6,-,N/A,,Mostly Cloudy,360,2012-12-23 23:54:00
7:54 PM,30.0,25.0,82,30.04,10.0,NNE,4.6,-,N/A,,Mostly Cloudy,20,2012-12-24 00:54:00
8:54 PM,28.9,24.1,82,30.05,10.0,North,4.6,-,N/A,,Mostly Cloudy,10,2012-12-24 01:54:00
9:54 PM,27.0,23.0,85,30.03,10.0,NE,5.8,-,N/A,,Scattered Clouds,50,2012-12-24 02:54:00
10:54 PM,26.1,21.9,84,30.01,10.0,ENE,8.1,-,N/A,,Partly Cloudy,60,2012-12-24 03:54:00
11:54 PM,27.0,23.0,85,30.01,10.0,ENE,10.4,-,N/A,,Partly Cloudy,70,2012-12-24 04:54:00